| time (UTC) | temp F | wind direction | speed MPH | gust MPH | rain 1hr in | rain 24hr in | rain mn in | humidity % | barometer mb |
| 20260505100016 | 63 | 0 | 6.0 | 17.0 | 0.00 | 0.00 | 0.00 | 63 | 1012.2 |
| 20260505095016 | 61 | 23 | 6.0 | 14.0 | 0.00 | 0.00 | 0.00 | 68 | 1012.3 |
| 20260505094016 | 59 | 23 | 7.0 | 18.0 | 0.00 | 0.00 | 0.00 | 69 | 1012.3 |
| 20260505093016 | 59 | 23 | 6.0 | 11.0 | 0.00 | 0.00 | 0.00 | 70 | 1012.4 |
| 20260505092018 | 59 | 45 | 6.0 | 11.0 | 0.00 | 0.00 | 0.00 | 70 | 1012.4 |
| 20260505091016 | 59 | 23 | 6.0 | 12.0 | 0.00 | 0.00 | 0.00 | 70 | 1012.5 |
| 20260505090016 | 59 | 23 | 5.0 | 11.0 | 0.00 | 0.00 | 0.00 | 69 | 1012.5 |
| 20260505085037 | 59 | 23 | 6.0 | 14.0 | 0.00 | 0.00 | 0.00 | 71 | 1012.5 |
| 20260505084038 | 59 | 23 | 5.0 | 10.0 | 0.00 | 0.00 | 0.00 | 71 | 1012.6 |
| 20260505083016 | 60 | 45 | 6.0 | 12.0 | 0.00 | 0.00 | 0.00 | 70 | 1012.6 |
| 20260505082036 | 60 | 45 | 5.0 | 10.0 | 0.00 | 0.00 | 0.00 | 70 | 1012.6 |
| 20260505081016 | 59 | 23 | 5.0 | 10.0 | 0.00 | 0.00 | 0.00 | 72 | 1012.5 |
| 20260505080017 | 59 | 0 | 3.0 | 10.0 | 0.00 | 0.00 | 0.00 | 73 | 1012.5 |
| 20260505075016 | 59 | 45 | 5.0 | 10.0 | 0.00 | 0.00 | 0.00 | 74 | 1012.5 |
| 20260505074016 | 58 | 45 | 6.0 | 13.0 | 0.00 | 0.00 | 0.00 | 75 | 1012.5 |
| 20260505073017 | 58 | 45 | 5.0 | 12.0 | 0.00 | 0.00 | 0.00 | 80 | 1012.5 |
| 20260505072016 | 57 | 45 | 4.0 | 10.0 | 0.00 | 0.00 | 0.00 | 85 | 1012.6 |
| 20260505071036 | 56 | 45 | 4.0 | 8.0 | 0.00 | 0.00 | 0.00 | 86 | 1012.5 |
| 20260505070016 | 56 | 45 | 3.0 | 9.0 | 0.00 | 0.00 | 0.00 | 87 | 1012.6 |
| 20260505065017 | 56 | 0 | 3.0 | 8.0 | 0.00 | 0.00 | 0.00 | 87 | 1012.7 |
| 20260505064016 | 55 | 0 | 2.0 | 7.0 | 0.00 | 0.00 | 0.00 | 88 | 1012.8 |
| 20260505063016 | 55 | 23 | 3.0 | 8.0 | 0.00 | 0.00 | 0.00 | 88 | 1012.9 |
| 20260505062017 | 55 | 23 | 2.0 | 5.0 | 0.00 | 0.00 | 0.00 | 88 | 1012.8 |
| 20260505061019 | 55 | 45 | 3.0 | 5.0 | 0.00 | 0.00 | 0.00 | 89 | 1012.7 |
| 20260505060017 | 55 | 23 | 1.0 | 3.0 | 0.00 | 0.00 | 0.00 | 89 | 1012.8 |
| 20260505055017 | 55 | 45 | 1.0 | 4.0 | 0.00 | 0.00 | 0.00 | 89 | 1012.7 |
| 20260505054016 | 55 | 0.0 | 2.0 | 0.00 | 0.00 | 0.00 | 89 | 1012.7 | |
| 20260505053057 | 55 | 23 | 1.0 | 4.0 | 0.00 | 0.00 | 0.00 | 89 | 1012.7 |
| 20260505052016 | 55 | 23 | 1.0 | 3.0 | 0.00 | 0.00 | 0.00 | 89 | 1012.6 |
| 20260505051017 | 54 | 23 | 1.0 | 4.0 | 0.00 | 0.00 | 0.00 | 89 | 1012.6 |
| 20260505041017 | 54 | 45 | 2.0 | 7.0 | 0.00 | 0.00 | 0.00 | 90 | 1012.7 |
| 20260505040017 | 54 | 45 | 1.0 | 2.0 | 0.00 | 0.00 | 0.00 | 90 | 1012.7 |
| 20260505035015 | 54 | 45 | 2.0 | 5.0 | 0.00 | 0.00 | 0.00 | 90 | 1012.8 |
| 20260505034016 | 55 | 45 | 1.0 | 4.0 | 0.00 | 0.00 | 0.00 | 90 | 1012.9 |
| 20260505033017 | 55 | 68 | 1.0 | 3.0 | 0.00 | 0.00 | 0.00 | 90 | 1013.0 |
| 20260505032036 | 55 | 45 | 1.0 | 3.0 | 0.00 | 0.00 | 0.00 | 90 | 1013.0 |
| 20260505031015 | 55 | 113 | 1.0 | 2.0 | 0.00 | 0.00 | 0.00 | 90 | 1013.1 |
| 20260505030036 | 55 | 113 | 1.0 | 2.0 | 0.00 | 0.00 | 0.00 | 90 | 1013.0 |
| 20260505025015 | 55 | 0.0 | 2.0 | 0.00 | 0.00 | 0.00 | 90 | 1013.0 | |
| 20260505024017 | 56 | 113 | 1.0 | 3.0 | 0.00 | 0.00 | 0.00 | 90 | 1013.1 |
| 20260505023015 | 56 | 113 | 2.0 | 3.0 | 0.00 | 0.00 | 0.00 | 90 | 1013.0 |
| 20260505022015 | 56 | 113 | 1.0 | 3.0 | 0.00 | 0.00 | 0.00 | 90 | 1013.1 |
| 20260505021015 | 56 | 90 | 1.0 | 3.0 | 0.00 | 0.00 | 0.00 | 90 | 1013.1 |
| 20260505020015 | 56 | 0.0 | 0.0 | 0.00 | 0.00 | 0.00 | 90 | 1013.2 | |
| 20260505015015 | 56 | 45 | 1.0 | 3.0 | 0.00 | 0.00 | 0.00 | 90 | 1013.2 |
| 20260505014015 | 56 | 68 | 1.0 | 4.0 | 0.00 | 0.00 | 0.00 | 91 | 1013.4 |
| 20260505013017 | 56 | 45 | 2.0 | 4.0 | 0.00 | 0.00 | 0.00 | 91 | 1013.4 |
| 20260505012015 | 55 | 45 | 1.0 | 4.0 | 0.00 | 0.00 | 0.00 | 91 | 1013.4 |
| 20260505011017 | 55 | 0.0 | 0.0 | 0.00 | 0.00 | 0.00 | 91 | 1013.4 | |
| 20260505010017 | 55 | 0.0 | 0.0 | 0.00 | 0.00 | 0.00 | 91 | 1013.5 | |
| 20260505005017 | 55 | 0.0 | 0.0 | 0.00 | 0.00 | 0.00 | 90 | 1013.4 | |
| 20260505004017 | 55 | 0.0 | 0.0 | 0.00 | 0.00 | 0.00 | 90 | 1013.7 | |
| 20260505003017 | 55 | 0.0 | 0.0 | 0.00 | 0.00 | 0.00 | 90 | 1013.8 | |
| 20260505002017 | 56 | 0.0 | 0.0 | 0.00 | 0.00 | 0.00 | 90 | 1013.9 | |
| 20260505001017 | 56 | 0.0 | 0.0 | 0.00 | 0.00 | 0.00 | 90 | 1013.6 | |
| 20260505000019 | 56 | 0.0 | 0.0 | 0.00 | 0.00 | 0.00 | 90 | 1013.8 | |
| 20260504235017 | 56 | 0.0 | 0.0 | 0.00 | 0.00 | 0.00 | 90 | 1013.9 | |
| 20260504234019 | 56 | 0.0 | 0.0 | 0.00 | 0.00 | 0.00 | 90 | 1013.9 | |
| 20260504233017 | 56 | 0.0 | 0.0 | 0.00 | 0.00 | 0.00 | 90 | 1014.0 | |
| 20260504232017 | 56 | 0.0 | 0.0 | 0.00 | 0.00 | 0.00 | 90 | 1013.9 | |
| 20260504231017 | 56 | 0.0 | 0.0 | 0.00 | 0.00 | 0.00 | 90 | 1013.8 | |
| 20260504230017 | 56 | 0.0 | 0.0 | 0.00 | 0.00 | 0.00 | 90 | 1013.9 | |
| 20260504225018 | 56 | 0.0 | 0.0 | 0.00 | 0.00 | 0.00 | 89 | 1013.9 | |
| 20260504224037 | 56 | 0.0 | 0.0 | 0.00 | 0.00 | 0.00 | 89 | 1014.0 | |
| 20260504223017 | 56 | 0.0 | 0.0 | 0.00 | 0.00 | 0.00 | 89 | 1013.9 | |
| 20260504222038 | 56 | 0.0 | 0.0 | 0.00 | 0.00 | 0.00 | 89 | 1014.0 | |
| 20260504221018 | 56 | 0.0 | 0.0 | 0.00 | 0.00 | 0.00 | 89 | 1014.1 | |
| 20260504220020 | 56 | 0.0 | 0.0 | 0.00 | 0.00 | 0.00 | 88 | 1014.1 | |
| 20260504215017 | 57 | 0.0 | 0.0 | 0.00 | 0.00 | 0.00 | 88 | 1014.1 | |
| 20260504214018 | 57 | 0.0 | 0.0 | 0.00 | 0.00 | 0.00 | 88 | 1014.1 | |
| 20260504213018 | 57 | 0.0 | 0.0 | 0.00 | 0.00 | 0.00 | 88 | 1014.2 | |
| 20260504212017 | 57 | 0.0 | 0.0 | 0.00 | 0.00 | 0.00 | 87 | 1014.2 | |
| 20260504211037 | 57 | 0.0 | 0.0 | 0.00 | 0.00 | 0.00 | 87 | 1014.1 | |
| 20260504210019 | 57 | 135 | 1.0 | 3.0 | 0.00 | 0.00 | 0.00 | 86 | 1014.2 |
| 20260504205017 | 57 | 0.0 | 1.0 | 0.00 | 0.00 | 0.00 | 85 | 1014.1 | |
| 20260504204018 | 57 | 0.0 | 1.0 | 0.00 | 0.00 | 0.00 | 85 | 1014.1 | |
| 20260504203017 | 58 | 0.0 | 0.0 | 0.00 | 0.00 | 0.00 | 85 | 1014.1 | |
| 20260504202017 | 58 | 0.0 | 0.0 | 0.00 | 0.00 | 0.00 | 84 | 1014.2 | |
| 20260504201017 | 58 | 0.0 | 1.0 | 0.00 | 0.00 | 0.00 | 84 | 1014.1 | |
| 20260504200018 | 58 | 0.0 | 0.0 | 0.00 | 0.00 | 0.00 | 84 | 1013.9 | |
| 20260504195017 | 58 | 0.0 | 1.0 | 0.00 | 0.00 | 0.00 | 84 | 1013.9 | |
| 20260504194017 | 58 | 0.0 | 1.0 | 0.00 | 0.00 | 0.00 | 84 | 1013.9 | |
| 20260504193018 | 58 | 203 | 1.0 | 3.0 | 0.00 | 0.00 | 0.00 | 83 | 1013.8 |
| 20260504192018 | 58 | 0.0 | 0.0 | 0.00 | 0.00 | 0.00 | 83 | 1013.8 | |
| 20260504191016 | 59 | 180 | 1.0 | 3.0 | 0.00 | 0.00 | 0.00 | 83 | 1013.7 |
| 20260504190037 | 59 | 203 | 2.0 | 4.0 | 0.00 | 0.00 | 0.00 | 83 | 1013.6 |
| 20260504185017 | 59 | 225 | 3.0 | 6.0 | 0.00 | 0.00 | 0.00 | 82 | 1013.7 |
| 20260504184016 | 60 | 203 | 3.0 | 4.0 | 0.00 | 0.00 | 0.00 | 82 | 1013.6 |
| 20260504183016 | 60 | 248 | 2.0 | 4.0 | 0.00 | 0.00 | 0.00 | 81 | 1013.5 |
| 20260504182017 | 61 | 180 | 1.0 | 3.0 | 0.00 | 0.00 | 0.00 | 80 | 1013.5 |
| 20260504181018 | 61 | 225 | 2.0 | 3.0 | 0.00 | 0.00 | 0.00 | 80 | 1013.4 |
| 20260504180018 | 61 | 225 | 2.0 | 4.0 | 0.00 | 0.00 | 0.00 | 80 | 1013.4 |
| 20260504175017 | 61 | 248 | 3.0 | 6.0 | 0.00 | 0.00 | 0.00 | 79 | 1013.4 |
| 20260504174018 | 61 | 225 | 2.0 | 5.0 | 0.00 | 0.00 | 0.00 | 78 | 1013.3 |
| 20260504173018 | 62 | 225 | 2.0 | 5.0 | 0.00 | 0.00 | 0.00 | 78 | 1013.4 |
| 20260504172017 | 63 | 203 | 2.0 | 4.0 | 0.00 | 0.00 | 0.00 | 77 | 1013.3 |
| 20260504171016 | 64 | 225 | 2.0 | 5.0 | 0.00 | 0.00 | 0.00 | 75 | 1013.2 |
| 20260504151018 | 65 | 225 | 4.0 | 9.0 | 0.00 | 0.00 | 0.00 | 74 | 1013.6 |
| 20260504141016 | 65 | 225 | 7.0 | 14.0 | 0.00 | 0.00 | 0.00 | 74 | 1013.7 |